CZ-6A DEB, 54573

Orbit data source: Space-Track

CZ-6A DEB, 54573 is space debris in SSO originally from a launch on Fri, 11 Nov 2022 UTC launched from the Taiyaun Space Center, China (TSC). Debris objects in space refer to the collection of defunct objects orbiting the Earth. Examples of debris include non-operational satellites, rocket bodies, and fragments generated from explosions, collisions, or faulty payload assembly.

Loading next visibility...
Identifier
54573, 2022-151LZ
Orbit
SSO
Country
Flag of CNCN / PRC
Related business
Manufacturer
SAST
Mission
Spacecraft
Bus & Motor
Unknown
Mass
Unknown
Launch date (UTC)
2022-11-11 (4 years ago)
Launch vehicle
Unknown
Launch site
Taiyaun Space Center, China (TSC)
Object type
Payload
Rocket body
Debris
Shape & HBR
Unknown shape, 0.1 m
Radar Cross Section
Medium (>0.1 m² and <1 m²)

Expand to show TLE details & history
Last TLE update: 2 days ago

TLE from 2 days ago
0 CZ-6A DEB
1 54573U 22151LZ  26171.39010142  .00002097  00000-0  48522-3 0  9994
2 54573  98.6075 225.4416 0091751 294.2586  64.9045 14.53735852189496
Epoch: 2026-06-20T09:21Z
TLE epoch observation values (Epoch: 2026-06-20T09:21:44.762Z)
Latitude
-0.00001°
Longitude
176.39968°
Altitude
689.327 km
Speed
7.526 km/s
True Right ascension
15h 01m 45s
True Declination
0° 00' 00"
Sunlit
Object was in full shadow at epoch
Visualization orbit readout
Latitude
Unknown
Longitude
Unknown
Altitude
Unknown
Speed
Unknown
Apparent Right ascension
Unknown
Apparent Declination
Unknown
Sunlit
N/A
Visualization observer readout
Local Sidereal Time
21:23:40
Azimuth
Unknown
Elevation
Unknown
Doppler factor
Unknown
Orbital elements
Apogee altitude
775.621 km
Perigee altitude
645.542 km
Semi-major axis
7,088.718 km
Eccentricity
0.00918
Inclination
98.6075°
RAAN
225.4416°
Arg. of periapsis
294.2586°
True anomaly
65.86125°
Mean anomaly
64.9045°
Eccentric anomaly
65.38241°
Mean motion
3.63657 °/min
Orbital period
98.99 mins
BSTAR
0.00048522
Loading maneuver chart data...
Computing Atmospheric mass density...
Loading historical data...
Loading historical data...
Loading historical data...
Loading historical data...
Loading historical data...
Loading historical data...
Loading historical data...

Documentation

Showing up to 5 results
|